Location: *
(40.4000°N, 15.1200°E)
Time: 22:24:43
(UTC+00:00)

MOS 1 Rocket - Pass Details

Date: 09 April 2020
Orbit: 615 x 830 km, 97.4° (Epoch: 24 May)

Event Time Altitude Azimuth Distance (km) Brightness Sun altitude
Rises 19:16:34 0° 11° (N) 3,358 7.1 -19.3°
Reaches altitude 10° 19:18:55 10° 11° (NNE) 2,433 6.3 -19.7°
Maximum altitude 19:24:23 88° 284° (WNW) 836 3.6 -20.6°
Drops below altitude 10° 19:29:47 10° 194° (SSW) 2,414 5.9 -21.5°
Enters shadow 19:31:55 - 194° (SSW) 3,251 6.6 -21.8°
